Location: Bernadets
(43.3537°N, 0.3167°E)
Time: 07:05:23
(UTC+00:00)

SL-16 R/B - Pass Details

Date: 24 October 2021
Orbit: 842 x 846 km, 71.0° (Epoch: 02 December)

Event Time Altitude Azimuth Distance (km) Brightness Sun altitude
Rises 19:35:28 0° 247° (WSW) 3,394 6.1 -28.6°
Reaches altitude 10° 19:38:31 10° 263° (W) 2,463 5.5 -29.1°
Maximum altitude 19:42:43 21° 311° (NW) 1,814 4.5 -29.9°
Drops below altitude 10° 19:46:57 10° 360° (N) 2,475 4.7 -30.6°
Enters shadow 19:49:41 - 15° (NNE) 3,296 5.3 -31.1°
